Location: ????????
(41.2031°N, 22.5756°E)
Time: 15:38:23
(UTC+00:00)

USA 267 - Pass Details

Date: 01 December 2020
Orbit: 1100 x 1107 km, 123.0° (Epoch: 18 January)

Event Time Altitude Azimuth Distance (km) Brightness Sun altitude
Exits shadow 17:34:03 48° 24° (NNE) 1,404 3.5 -28.1°
Drops below altitude 10° 17:40:01 10° 320° (NW) 2,966 5.9 -29.2°
Sets 17:42:35 0° 315° (NW) 3,927 6.7 -29.7°
